Time,TemperatureF,DewpointF,PressureIn,WindDirection,WindDirectionDegrees,WindSpeedMPH,WindSpeedGustMPH,Humidity,HourlyPrecipIn,Conditions,Clouds,dailyrainin,SoftwareType,DateUTC
2013-11-07 00:02:00,29.3,16.7,30.56,NW,314,5.0,8.0,59,0.00,,,0.00,Wunderground v.1.15,2013-11-07 07:02:00,
2013-11-07 00:08:00,29.4,16.8,30.56,NNW,333,6.0,11.0,59,0.00,,,0.00,Wunderground v.1.15,2013-11-07 07:08:00,
2013-11-07 00:13:00,29.4,16.8,30.56,West,276,5.0,6.0,59,0.00,,,0.00,Wunderground v.1.15,2013-11-07 07:13:00,
2013-11-07 00:18:00,29.3,16.7,30.55,North,354,5.0,7.0,59,0.00,,,0.00,Wunderground v.1.15,2013-11-07 07:18:00,
2013-11-07 00:23:00,29.2,16.6,30.56,WNW,288,4.0,4.0,59,0.00,,,0.00,Wunderground v.1.15,2013-11-07 07:23:00,
2013-11-07 00:29:00,29.3,16.7,30.55,NW,311,5.0,7.0,59,0.00,,,0.00,Wunderground v.1.15,2013-11-07 07:29:00,
2013-11-07 00:34:00,29.0,16.8,30.56,WNW,290,4.0,5.0,60,0.00,,,0.00,Wunderground v.1.15,2013-11-07 07:34:00,
2013-11-07 00:40:00,29.1,16.9,30.55,NNW,343,4.0,9.0,60,0.00,,,0.00,Wunderground v.1.15,2013-11-07 07:40:00,
2013-11-07 00:45:00,29.1,16.9,30.55,NW,325,5.0,9.0,60,0.00,,,0.00,Wunderground v.1.15,2013-11-07 07:45:00,
2013-11-07 00:51:00,29.2,17.0,30.55,NNW,336,5.0,6.0,60,0.00,,,0.00,Wunderground v.1.15,2013-11-07 07:51:00,
2013-11-07 00:56:00,29.1,16.9,30.55,NNW,336,5.0,6.0,60,0.00,,,0.00,Wunderground v.1.15,2013-11-07 07:56:00,
2013-11-07 01:01:00,29.1,16.9,30.56,North,355,4.0,4.0,60,0.00,,,0.00,Wunderground v.1.15,2013-11-07 08:01:00,
2013-11-07 01:06:00,29.1,16.9,30.55,North,353,3.0,4.0,60,0.00,,,0.00,Wunderground v.1.15,2013-11-07 08:06:00,
2013-11-07 01:15:00,29.2,17.0,30.55,NNW,330,5.0,5.0,60,0.00,,,0.00,Wunderground v.1.15,2013-11-07 08:15:00,
2013-11-07 01:20:00,29.2,17.0,30.55,SW,236,5.0,5.0,60,0.00,,,0.00,Wunderground v.1.15,2013-11-07 08:20:00,
2013-11-07 01:26:00,29.2,17.0,30.55,NE,34,5.0,9.0,60,0.00,,,0.00,Wunderground v.1.15,2013-11-07 08:26:00,
2013-11-07 01:31:00,29.3,17.1,30.56,North,351,7.0,8.0,60,0.00,,,0.00,Wunderground v.1.15,2013-11-07 08:31:00,
2013-11-07 01:36:00,29.3,17.1,30.56,NE,43,7.0,8.0,60,0.00,,,0.00,Wunderground v.1.15,2013-11-07 08:36:00,
2013-11-07 01:41:00,29.4,17.2,30.56,WNW,299,6.0,6.0,60,0.00,,,0.00,Wunderground v.1.15,2013-11-07 08:41:00,
2013-11-07 01:46:00,29.4,17.2,30.56,NW,307,6.0,8.0,60,0.00,,,0.00,Wunderground v.1.15,2013-11-07 08:46:00,
2013-11-07 01:52:00,29.5,17.3,30.56,NNW,338,7.0,9.0,60,0.00,,,0.00,Wunderground v.1.15,2013-11-07 08:52:00,
2013-11-07 01:58:00,29.6,17.0,30.57,North,360,9.0,11.0,59,0.00,,,0.00,Wunderground v.1.15,2013-11-07 08:58:00,
2013-11-07 02:03:00,29.7,17.1,30.57,WNW,290,8.0,9.0,59,0.00,,,0.00,Wunderground v.1.15,2013-11-07 09:03:00,
2013-11-07 02:08:00,29.7,17.1,30.57,NNE,18,7.0,9.0,59,0.00,,,0.00,Wunderground v.1.15,2013-11-07 09:08:00,
2013-11-07 02:14:00,29.8,17.2,30.57,West,266,6.0,11.0,59,0.00,,,0.00,Wunderground v.1.15,2013-11-07 09:14:00,
2013-11-07 02:20:00,29.6,17.4,30.57,NNW,330,5.0,5.0,60,0.00,,,0.00,Wunderground v.1.15,2013-11-07 09:20:00,
2013-11-07 02:25:00,29.4,17.2,30.56,WSW,256,5.0,7.0,60,0.00,,,0.00,Wunderground v.1.15,2013-11-07 09:25:00,
2013-11-07 02:30:00,29.3,17.1,30.55,WNW,301,5.0,5.0,60,0.00,,,0.00,Wunderground v.1.15,2013-11-07 09:30:00,
2013-11-07 02:35:00,29.4,17.2,30.55,WNW,300,6.0,15.0,60,0.00,,,0.00,Wunderground v.1.15,2013-11-07 09:35:00,
2013-11-07 02:41:00,29.5,17.3,30.55,NW,323,8.0,11.0,60,0.00,,,0.00,Wunderground v.1.15,2013-11-07 09:41:00,
2013-11-07 02:46:00,29.7,17.5,30.54,ENE,60,8.0,11.0,60,0.00,,,0.00,Wunderground v.1.15,2013-11-07 09:46:00,
2013-11-07 02:52:00,29.8,17.2,30.54,NNW,337,7.0,8.0,59,0.00,,,0.00,Wunderground v.1.15,2013-11-07 09:52:00,
2013-11-07 02:57:00,29.7,17.5,30.53,NNW,327,7.0,10.0,60,0.00,,,0.00,Wunderground v.1.15,2013-11-07 09:57:00,
2013-11-07 03:02:00,29.7,17.5,30.54,West,265,7.0,10.0,60,0.00,,,0.00,Wunderground v.1.15,2013-11-07 10:02:00,
2013-11-07 03:07:00,29.7,17.5,30.53,North,350,7.0,10.0,60,0.00,,,0.00,Wunderground v.1.15,2013-11-07 10:07:00,
2013-11-07 03:12:00,29.8,17.6,30.53,NNE,27,7.0,15.0,60,0.00,,,0.00,Wunderground v.1.15,2013-11-07 10:12:00,
2013-11-07 03:17:00,29.8,17.6,30.53,North,8,8.0,16.0,60,0.00,,,0.00,Wunderground v.1.15,2013-11-07 10:17:00,
2013-11-07 03:23:00,29.8,17.6,30.53,WNW,300,8.0,11.0,60,0.00,,,0.00,Wunderground v.1.15,2013-11-07 10:23:00,
2013-11-07 03:28:00,30.0,17.4,30.53,NNE,15,8.0,11.0,59,0.00,,,0.00,Wunderground v.1.15,2013-11-07 10:28:00,
2013-11-07 03:34:00,30.2,17.6,30.54,NW,323,8.0,11.0,59,0.00,,,0.00,Wunderground v.1.15,2013-11-07 10:34:00,
2013-11-07 03:40:00,30.1,17.5,30.53,NNE,29,7.0,7.0,59,0.00,,,0.00,Wunderground v.1.15,2013-11-07 10:40:00,
2013-11-07 03:45:00,29.8,17.6,30.54,North,356,6.0,9.0,60,0.00,,,0.00,Wunderground v.1.15,2013-11-07 10:45:00,
2013-11-07 03:50:00,30.0,17.4,30.54,NNE,19,7.0,7.0,59,0.00,,,0.00,Wunderground v.1.15,2013-11-07 10:50:00,
2013-11-07 03:55:00,30.0,17.4,30.53,NNW,334,7.0,7.0,59,0.00,,,0.00,Wunderground v.1.15,2013-11-07 10:55:00,
2013-11-07 04:01:00,30.0,17.4,30.53,NNW,343,7.0,10.0,59,0.00,,,0.00,Wunderground v.1.15,2013-11-07 11:01:00,
2013-11-07 04:06:00,30.0,17.4,30.53,North,5,9.0,12.0,59,0.00,,,0.00,Wunderground v.1.15,2013-11-07 11:06:00,
2013-11-07 04:11:00,29.8,17.6,30.53,North,9,9.0,9.0,60,0.00,,,0.00,Wunderground v.1.15,2013-11-07 11:11:00,
2013-11-07 04:16:00,29.7,17.5,30.52,NW,313,8.0,9.0,60,0.00,,,0.00,Wunderground v.1.15,2013-11-07 11:16:00,
2013-11-07 04:21:00,29.6,17.4,30.53,NNW,345,7.0,10.0,60,0.00,,,0.00,Wunderground v.1.15,2013-11-07 11:21:00,
2013-11-07 04:27:00,29.6,17.4,30.53,NW,323,8.0,12.0,60,0.00,,,0.00,Wunderground v.1.15,2013-11-07 11:27:00,
2013-11-07 04:32:00,29.7,17.5,30.53,NNE,27,8.0,17.0,60,0.00,,,0.00,Wunderground v.1.15,2013-11-07 11:32:00,
2013-11-07 04:38:00,29.8,17.6,30.52,North,5,9.0,18.0,60,0.00,,,0.00,Wunderground v.1.15,2013-11-07 11:38:00,
2013-11-07 04:43:00,29.8,17.6,30.53,NE,41,8.0,9.0,60,0.00,,,0.00,Wunderground v.1.15,2013-11-07 11:43:00,
2013-11-07 04:48:00,30.0,17.4,30.52,East,96,8.0,9.0,59,0.00,,,0.00,Wunderground v.1.15,2013-11-07 11:48:00,
2013-11-07 04:53:00,29.9,17.3,30.52,NW,326,8.0,8.0,59,0.00,,,0.00,Wunderground v.1.15,2013-11-07 11:53:00,
2013-11-07 04:59:00,30.0,17.4,30.52,NNW,348,7.0,9.0,59,0.00,,,0.00,Wunderground v.1.15,2013-11-07 11:59:00,
2013-11-07 05:04:00,30.0,17.4,30.52,North,354,7.0,10.0,59,0.00,,,0.00,Wunderground v.1.15,2013-11-07 12:04:00,
2013-11-07 05:09:00,29.9,17.3,30.52,NW,315,5.0,10.0,59,0.00,,,0.00,Wunderground v.1.15,2013-11-07 12:09:00,
2013-11-07 05:15:00,29.9,17.3,30.52,NW,319,6.0,8.0,59,0.00,,,0.00,Wunderground v.1.15,2013-11-07 12:15:00,
2013-11-07 05:20:00,29.9,17.3,30.52,NNE,23,5.0,10.0,59,0.00,,,0.00,Wunderground v.1.15,2013-11-07 12:20:00,
2013-11-07 05:25:00,30.1,17.5,30.53,NNW,343,5.0,13.0,59,0.00,,,0.00,Wunderground v.1.15,2013-11-07 12:25:00,
2013-11-07 05:30:00,30.5,17.5,30.52,NE,43,7.0,9.0,58,0.00,,,0.00,Wunderground v.1.15,2013-11-07 12:30:00,
2013-11-07 05:35:00,30.3,17.3,30.52,WNW,298,7.0,14.0,58,0.00,,,0.00,Wunderground v.1.15,2013-11-07 12:35:00,
2013-11-07 05:41:00,30.6,17.6,30.52,ENE,65,8.0,10.0,58,0.00,,,0.00,Wunderground v.1.15,2013-11-07 12:41:00,
2013-11-07 05:46:00,30.6,17.2,30.52,NE,49,8.0,10.0,57,0.00,,,0.00,Wunderground v.1.15,2013-11-07 12:46:00,
2013-11-07 05:52:00,30.9,17.4,30.52,North,352,8.0,10.0,57,0.00,,,0.00,Wunderground v.1.15,2013-11-07 12:52:00,
2013-11-07 05:57:00,31.0,17.5,30.51,NE,43,8.0,10.0,57,0.00,,,0.00,Wunderground v.1.15,2013-11-07 12:57:00,
2013-11-07 06:03:00,31.1,17.2,30.51,NNW,329,6.0,12.0,56,0.00,,,0.00,Wunderground v.1.15,2013-11-07 13:03:00,
2013-11-07 06:08:00,31.0,17.5,30.51,NNE,32,7.0,14.0,57,0.00,,,0.00,Wunderground v.1.15,2013-11-07 13:08:00,
2013-11-07 06:13:00,31.0,17.1,30.50,NW,319,9.0,17.0,56,0.00,,,0.00,Wunderground v.1.15,2013-11-07 13:13:00,
2013-11-07 06:18:00,31.0,17.5,30.50,North,357,8.0,17.0,57,0.00,,,0.00,Wunderground v.1.15,2013-11-07 13:18:00,
2013-11-07 06:23:00,31.0,17.5,30.50,North,5,7.0,12.0,57,0.00,,,0.00,Wunderground v.1.15,2013-11-07 13:23:00,
2013-11-07 06:28:00,31.2,17.3,30.50,NNE,23,8.0,15.0,56,0.00,,,0.00,Wunderground v.1.15,2013-11-07 13:28:00,
2013-11-07 06:34:00,31.3,17.4,30.50,NNE,12,9.0,20.0,56,0.00,,,0.00,Wunderground v.1.15,2013-11-07 13:34:00,
2013-11-07 06:39:00,31.8,17.5,30.50,NE,44,10.0,20.0,55,0.00,,,0.00,Wunderground v.1.15,2013-11-07 13:39:00,
2013-11-07 06:44:00,32.0,17.2,30.50,NW,323,10.0,15.0,54,0.00,,,0.00,Wunderground v.1.15,2013-11-07 13:44:00,
2013-11-07 06:49:00,32.2,17.4,30.50,NE,55,10.0,15.0,54,0.00,,,0.00,Wunderground v.1.15,2013-11-07 13:49:00,
2013-11-07 06:56:00,32.4,17.2,30.50,East,82,10.0,11.0,53,0.00,,,0.00,Wunderground v.1.15,2013-11-07 13:56:00,
2013-11-07 07:02:00,32.4,17.2,30.50,NW,311,9.0,10.0,53,0.00,,,0.00,Wunderground v.1.15,2013-11-07 14:02:00,
2013-11-07 07:08:00,32.3,17.1,30.51,WNW,283,9.0,16.0,53,0.00,,,0.00,Wunderground v.1.15,2013-11-07 14:08:00,
2013-11-07 07:13:00,32.3,17.1,30.51,NW,305,8.0,16.0,53,0.00,,,0.00,Wunderground v.1.15,2013-11-07 14:13:00,
2013-11-07 07:18:00,32.2,17.0,30.51,NNW,336,9.0,16.0,53,0.00,,,0.00,Wunderground v.1.15,2013-11-07 14:18:00,
2013-11-07 07:23:00,32.1,16.9,30.51,NNW,330,10.0,14.0,53,0.00,,,0.00,Wunderground v.1.15,2013-11-07 14:23:00,
2013-11-07 07:28:00,32.1,17.3,30.51,North,349,9.0,14.0,54,0.00,,,0.00,Wunderground v.1.15,2013-11-07 14:28:00,
2013-11-07 07:34:00,32.3,17.1,30.51,NW,323,9.0,15.0,53,0.00,,,0.00,Wunderground v.1.15,2013-11-07 14:34:00,
2013-11-07 07:40:00,32.5,17.2,30.52,NE,47,10.0,10.0,53,0.00,,,0.00,Wunderground v.1.15,2013-11-07 14:40:00,
2013-11-07 07:45:00,32.5,17.2,30.52,NNW,329,10.0,15.0,53,0.00,,,0.00,Wunderground v.1.15,2013-11-07 14:45:00,
2013-11-07 07:50:00,32.5,17.2,30.52,NNE,13,9.0,15.0,53,0.00,,,0.00,Wunderground v.1.15,2013-11-07 14:50:00,
2013-11-07 07:55:00,32.6,17.3,30.52,North,349,9.0,15.0,53,0.00,,,0.00,Wunderground v.1.15,2013-11-07 14:55:00,
2013-11-07 08:01:00,32.8,17.1,30.52,SE,127,8.0,19.0,52,0.00,,,0.00,Wunderground v.1.15,2013-11-07 15:01:00,
2013-11-07 08:06:00,32.8,17.1,30.52,NW,326,7.0,19.0,52,0.00,,,0.00,Wunderground v.1.15,2013-11-07 15:06:00,
2013-11-07 08:12:00,32.9,17.2,30.51,NW,326,6.0,8.0,52,0.00,,,0.00,Wunderground v.1.15,2013-11-07 15:12:00,
2013-11-07 08:17:00,33.1,17.4,30.51,NNW,330,6.0,13.0,52,0.00,,,0.00,Wunderground v.1.15,2013-11-07 15:17:00,
2013-11-07 08:22:00,33.5,17.3,30.51,NW,320,7.0,9.0,51,0.00,,,0.00,Wunderground v.1.15,2013-11-07 15:22:00,
2013-11-07 08:27:00,33.6,17.4,30.51,NNE,16,8.0,14.0,51,0.00,,,0.00,Wunderground v.1.15,2013-11-07 15:27:00,
2013-11-07 08:32:00,33.7,17.5,30.51,WNW,296,9.0,9.0,51,0.00,,,0.00,Wunderground v.1.15,2013-11-07 15:32:00,
2013-11-07 08:38:00,33.9,17.2,30.51,NW,308,9.0,15.0,50,0.00,,,0.00,Wunderground v.1.15,2013-11-07 15:38:00,
2013-11-07 08:43:00,34.1,17.4,30.51,NW,304,8.0,8.0,50,0.00,,,0.00,Wunderground v.1.15,2013-11-07 15:43:00,
2013-11-07 08:48:00,34.1,17.4,30.51,NW,322,8.0,11.0,50,0.00,,,0.00,Wunderground v.1.15,2013-11-07 15:48:00,
2013-11-07 08:54:00,34.3,17.6,30.51,NW,304,9.0,9.0,50,0.00,,,0.00,Wunderground v.1.15,2013-11-07 15:54:00,
2013-11-07 08:59:00,34.5,17.3,30.51,NW,304,8.0,13.0,49,0.00,,,0.00,Wunderground v.1.15,2013-11-07 15:59:00,
2013-11-07 09:04:00,34.7,17.5,30.51,NW,319,7.0,13.0,49,0.00,,,0.00,Wunderground v.1.15,2013-11-07 16:04:00,
2013-11-07 09:09:00,34.8,17.1,30.51,North,7,8.0,19.0,48,0.00,,,0.00,Wunderground v.1.15,2013-11-07 16:09:00,
2013-11-07 09:15:00,35.1,17.4,30.51,NNW,332,9.0,12.0,48,0.00,,,0.00,Wunderground v.1.15,2013-11-07 16:15:00,
2013-11-07 09:21:00,35.5,17.2,30.50,WNW,285,9.0,9.0,47,0.00,,,0.00,Wunderground v.1.15,2013-11-07 16:21:00,
2013-11-07 09:26:00,36.1,17.3,30.50,NNW,332,7.0,10.0,46,0.00,,,0.00,Wunderground v.1.15,2013-11-07 16:26:00,
2013-11-07 09:32:00,36.7,17.8,30.50,West,264,6.0,6.0,46,0.00,,,0.00,Wunderground v.1.15,2013-11-07 16:32:00,
2013-11-07 09:38:00,37.4,18.0,30.50,North,354,5.0,7.0,45,0.00,,,0.00,Wunderground v.1.15,2013-11-07 16:38:00,
2013-11-07 09:43:00,38.0,18.0,30.50,NNW,332,5.0,15.0,44,0.00,,,0.00,Wunderground v.1.15,2013-11-07 16:43:00,
2013-11-07 09:48:00,38.4,17.8,30.50,WNW,293,5.0,15.0,43,0.00,,,0.00,Wunderground v.1.15,2013-11-07 16:48:00,
2013-11-07 09:54:00,38.9,17.7,30.49,NW,304,5.0,7.0,42,0.00,,,0.00,Wunderground v.1.15,2013-11-07 16:54:00,
2013-11-07 09:59:00,39.2,18.0,30.49,WNW,292,4.0,7.0,42,0.00,,,0.00,Wunderground v.1.15,2013-11-07 16:59:00,
2013-11-07 10:04:00,39.2,18.0,30.49,WSW,252,5.0,6.0,42,0.00,,,0.00,Wunderground v.1.15,2013-11-07 17:04:00,
2013-11-07 10:10:00,39.4,18.2,30.49,WNW,291,5.0,5.0,42,0.00,,,0.00,Wunderground v.1.15,2013-11-07 17:10:00,
2013-11-07 10:16:00,39.6,17.8,30.49,NW,318,5.0,8.0,41,0.00,,,0.00,Wunderground v.1.15,2013-11-07 17:16:00,
2013-11-07 10:21:00,39.9,18.1,30.50,NW,304,5.0,6.0,41,0.00,,,0.00,Wunderground v.1.15,2013-11-07 17:21:00,
2013-11-07 10:26:00,40.0,17.6,30.50,NW,310,5.0,7.0,40,0.00,,,0.00,Wunderground v.1.15,2013-11-07 17:26:00,
2013-11-07 10:32:00,40.2,18.3,30.49,WNW,300,6.0,6.0,41,0.00,,,0.00,Wunderground v.1.15,2013-11-07 17:32:00,
2013-11-07 10:37:00,40.3,18.4,30.49,NW,325,6.0,6.0,41,0.00,,,0.00,Wunderground v.1.15,2013-11-07 17:37:00,
2013-11-07 10:42:00,40.5,18.0,30.48,WNW,295,6.0,10.0,40,0.00,,,0.00,Wunderground v.1.15,2013-11-07 17:42:00,
2013-11-07 10:48:00,40.6,17.5,30.48,WNW,285,6.0,10.0,39,0.00,,,0.00,Wunderground v.1.15,2013-11-07 17:48:00,
2013-11-07 10:53:00,40.6,17.5,30.48,NW,312,7.0,7.0,39,0.00,,,0.00,Wunderground v.1.15,2013-11-07 17:53:00,
2013-11-07 10:58:00,40.9,17.8,30.47,WNW,293,8.0,12.0,39,0.00,,,0.00,Wunderground v.1.15,2013-11-07 17:58:00,
2013-11-07 11:03:00,41.2,18.1,30.47,NW,308,8.0,16.0,39,0.00,,,0.00,Wunderground v.1.15,2013-11-07 18:03:00,
2013-11-07 11:09:00,41.4,17.7,30.47,NNW,339,7.0,16.0,38,0.00,,,0.00,Wunderground v.1.15,2013-11-07 18:09:00,
2013-11-07 11:15:00,41.6,18.4,30.46,NW,325,6.0,9.0,39,0.00,,,0.00,Wunderground v.1.15,2013-11-07 18:15:00,
2013-11-07 11:23:00,42.4,17.9,30.46,WNW,300,6.0,8.0,37,0.00,,,0.00,Wunderground v.1.15,2013-11-07 18:23:00,
2013-11-07 11:28:00,42.7,17.6,30.45,NW,314,6.0,10.0,36,0.00,,,0.00,Wunderground v.1.15,2013-11-07 18:28:00,
2013-11-07 11:34:00,42.7,17.6,30.44,NNW,330,6.0,12.0,36,0.00,,,0.00,Wunderground v.1.15,2013-11-07 18:34:00,
2013-11-07 11:39:00,42.9,18.4,30.44,NNW,333,6.0,12.0,37,0.00,,,0.00,Wunderground v.1.15,2013-11-07 18:39:00,
2013-11-07 11:44:00,43.3,18.7,30.43,NNW,345,6.0,7.0,37,0.00,,,0.00,Wunderground v.1.15,2013-11-07 18:44:00,
2013-11-07 11:50:00,43.4,18.2,30.43,WSW,239,7.0,7.0,36,0.00,,,0.00,Wunderground v.1.15,2013-11-07 18:50:00,
2013-11-07 11:56:00,43.8,17.9,30.42,WNW,288,6.0,17.0,35,0.00,,,0.00,Wunderground v.1.15,2013-11-07 18:56:00,
2013-11-07 12:01:00,44.0,18.1,30.42,WNW,300,6.0,6.0,35,0.00,,,0.00,Wunderground v.1.15,2013-11-07 19:01:00,
2013-11-07 12:06:00,44.3,18.3,30.41,ENE,68,6.0,6.0,35,0.00,,,0.00,Wunderground v.1.15,2013-11-07 19:06:00,
2013-11-07 12:12:00,44.4,17.7,30.41,NNW,342,6.0,12.0,34,0.00,,,0.00,Wunderground v.1.15,2013-11-07 19:12:00,
2013-11-07 12:17:00,45.2,18.5,30.40,WNW,287,6.0,12.0,34,0.00,,,0.00,Wunderground v.1.15,2013-11-07 19:17:00,
2013-11-07 12:23:00,44.8,18.1,30.40,NW,311,5.0,11.0,34,0.00,,,0.00,Wunderground v.1.15,2013-11-07 19:23:00,
2013-11-07 12:28:00,44.9,18.2,30.39,NNW,344,7.0,11.0,34,0.00,,,0.00,Wunderground v.1.15,2013-11-07 19:28:00,
2013-11-07 12:33:00,45.0,17.6,30.38,NW,321,7.0,7.0,33,0.00,,,0.00,Wunderground v.1.15,2013-11-07 19:33:00,
2013-11-07 12:38:00,45.3,17.8,30.38,NNW,333,6.0,7.0,33,0.00,,,0.00,Wunderground v.1.15,2013-11-07 19:38:00,
2013-11-07 12:43:00,45.2,18.5,30.37,NNW,340,6.0,10.0,34,0.00,,,0.00,Wunderground v.1.15,2013-11-07 19:43:00,
2013-11-07 12:48:00,45.5,17.3,30.37,WNW,293,6.0,10.0,32,0.00,,,0.00,Wunderground v.1.15,2013-11-07 19:48:00,
2013-11-07 12:54:00,45.9,17.7,30.37,WNW,297,6.0,11.0,32,0.00,,,0.00,Wunderground v.1.15,2013-11-07 19:54:00,
2013-11-07 13:00:00,46.1,17.8,30.37,West,262,7.0,7.0,32,0.00,,,0.00,Wunderground v.1.15,2013-11-07 20:00:00,
2013-11-07 13:05:00,46.0,17.7,30.37,NW,316,6.0,9.0,32,0.00,,,0.00,Wunderground v.1.15,2013-11-07 20:05:00,
2013-11-07 13:11:00,46.3,18.0,30.36,NNE,20,5.0,6.0,32,0.00,,,0.00,Wunderground v.1.15,2013-11-07 20:11:00,
2013-11-07 13:16:00,47.1,18.0,30.36,WNW,293,4.0,10.0,31,0.00,,,0.00,Wunderground v.1.15,2013-11-07 20:16:00,
2013-11-07 13:22:00,47.1,18.0,30.35,NW,325,4.0,5.0,31,0.00,,,0.00,Wunderground v.1.15,2013-11-07 20:22:00,
2013-11-07 13:28:00,47.1,18.0,30.34,North,354,5.0,12.0,31,0.00,,,0.00,Wunderground v.1.15,2013-11-07 20:28:00,
2013-11-07 13:34:00,46.9,18.5,30.34,North,9,5.0,7.0,32,0.00,,,0.00,Wunderground v.1.15,2013-11-07 20:34:00,
2013-11-07 13:39:00,47.1,18.0,30.33,NNE,12,6.0,12.0,31,0.00,,,0.00,Wunderground v.1.15,2013-11-07 20:39:00,
2013-11-07 13:46:00,47.7,18.5,30.33,NW,317,5.0,8.0,31,0.00,,,0.00,Wunderground v.1.15,2013-11-07 20:46:00,
2013-11-07 13:52:00,47.5,18.3,30.33,NW,304,4.0,7.0,31,0.00,,,0.00,Wunderground v.1.15,2013-11-07 20:52:00,
2013-11-07 13:58:00,48.3,19.0,30.33,West,277,4.0,8.0,31,0.00,,,0.00,Wunderground v.1.15,2013-11-07 20:58:00,
2013-11-07 14:03:00,49.1,18.2,30.33,NW,324,4.0,5.0,29,0.00,,,0.00,Wunderground v.1.15,2013-11-07 21:03:00,
2013-11-07 14:08:00,48.3,18.3,30.33,WNW,287,5.0,7.0,30,0.00,,,0.00,Wunderground v.1.15,2013-11-07 21:08:00,
2013-11-07 14:14:00,48.4,17.6,30.32,WNW,285,5.0,5.0,29,0.00,,,0.00,Wunderground v.1.15,2013-11-07 21:14:00,
2013-11-07 14:19:00,48.5,17.6,30.32,NW,313,5.0,8.0,29,0.00,,,0.00,Wunderground v.1.15,2013-11-07 21:19:00,
2013-11-07 14:25:00,47.9,17.9,30.32,WNW,284,6.0,12.0,30,0.00,,,0.00,Wunderground v.1.15,2013-11-07 21:25:00,
2013-11-07 14:30:00,48.1,18.8,30.31,NNW,340,5.0,9.0,31,0.00,,,0.00,Wunderground v.1.15,2013-11-07 21:30:00,
2013-11-07 14:35:00,47.7,18.5,30.31,NNW,333,6.0,9.0,31,0.00,,,0.00,Wunderground v.1.15,2013-11-07 21:35:00,
2013-11-07 14:41:00,47.7,18.5,30.31,NW,326,6.0,7.0,31,0.00,,,0.00,Wunderground v.1.15,2013-11-07 21:41:00,
2013-11-07 14:46:00,48.1,19.6,30.30,WSW,250,4.0,7.0,32,0.00,,,0.00,Wunderground v.1.15,2013-11-07 21:46:00,
2013-11-07 14:51:00,48.0,18.8,30.30,WNW,291,3.0,4.0,31,0.00,,,0.00,Wunderground v.1.15,2013-11-07 21:51:00,
2013-11-07 14:57:00,46.7,18.4,30.30,SW,236,4.0,7.0,32,0.00,,,0.00,Wunderground v.1.15,2013-11-07 21:57:00,
2013-11-07 15:02:00,46.1,18.6,30.30,North,5,3.0,3.0,33,0.00,,,0.00,Wunderground v.1.15,2013-11-07 22:02:00,
2013-11-07 15:08:00,45.4,18.6,30.29,NE,36,3.0,6.0,34,0.00,,,0.00,Wunderground v.1.15,2013-11-07 22:08:00,
2013-11-07 15:13:00,45.1,19.0,30.29,North,1,3.0,5.0,35,0.00,,,0.00,Wunderground v.1.15,2013-11-07 22:13:00,
2013-11-07 15:18:00,45.1,19.0,30.29,NW,309,3.0,7.0,35,0.00,,,0.00,Wunderground v.1.15,2013-11-07 22:18:00,
2013-11-07 15:23:00,45.1,19.0,30.29,North,349,3.0,7.0,35,0.00,,,0.00,Wunderground v.1.15,2013-11-07 22:23:00,
2013-11-07 15:28:00,45.2,19.1,30.28,North,7,4.0,8.0,35,0.00,,,0.00,Wunderground v.1.15,2013-11-07 22:28:00,
2013-11-07 15:33:00,45.2,19.1,30.28,ENE,68,3.0,4.0,35,0.00,,,0.00,Wunderground v.1.15,2013-11-07 22:33:00,
2013-11-07 15:39:00,44.8,18.8,30.28,NNW,347,2.0,4.0,35,0.00,,,0.00,Wunderground v.1.15,2013-11-07 22:39:00,
2013-11-07 15:44:00,44.6,18.6,30.28,NNW,344,2.0,2.0,35,0.00,,,0.00,Wunderground v.1.15,2013-11-07 22:44:00,
2013-11-07 15:50:00,44.3,18.3,30.27,NW,312,2.0,3.0,35,0.00,,,0.00,Wunderground v.1.15,2013-11-07 22:50:00,
2013-11-07 15:55:00,44.1,18.8,30.27,NE,34,3.0,7.0,36,0.00,,,0.00,Wunderground v.1.15,2013-11-07 22:55:00,
2013-11-07 16:00:00,44.2,19.5,30.27,NNW,334,3.0,5.0,37,0.00,,,0.00,Wunderground v.1.15,2013-11-07 23:00:00,
2013-11-07 16:05:00,44.3,19.6,30.27,NNW,344,5.0,11.0,37,0.00,,,0.00,Wunderground v.1.15,2013-11-07 23:05:00,
2013-11-07 16:11:00,44.2,19.5,30.26,NNW,333,5.0,5.0,37,0.00,,,0.00,Wunderground v.1.15,2013-11-07 23:11:00,
2013-11-07 16:16:00,43.9,19.3,30.26,NNE,25,3.0,11.0,37,0.00,,,0.00,Wunderground v.1.15,2013-11-07 23:16:00,
2013-11-07 16:22:00,43.6,19.6,30.25,NW,325,4.0,4.0,38,0.00,,,0.00,Wunderground v.1.15,2013-11-07 23:22:00,
2013-11-07 16:27:00,43.5,19.5,30.25,North,355,5.0,11.0,38,0.00,,,0.00,Wunderground v.1.15,2013-11-07 23:27:00,
2013-11-07 16:32:00,43.1,19.2,30.24,NNW,333,3.0,4.0,38,0.00,,,0.00,Wunderground v.1.15,2013-11-07 23:32:00,
2013-11-07 16:38:00,42.7,18.8,30.24,NNW,336,2.0,5.0,38,0.00,,,0.00,Wunderground v.1.15,2013-11-07 23:38:00,
2013-11-07 16:43:00,42.6,19.3,30.24,NNE,13,3.0,5.0,39,0.00,,,0.00,Wunderground v.1.15,2013-11-07 23:43:00,
2013-11-07 16:48:00,42.6,18.7,30.24,North,360,5.0,12.0,38,0.00,,,0.00,Wunderground v.1.15,2013-11-07 23:48:00,
2013-11-07 16:53:00,42.6,18.7,30.24,NNW,330,6.0,11.0,38,0.00,,,0.00,Wunderground v.1.15,2013-11-07 23:53:00,
2013-11-07 16:59:00,42.4,18.6,30.24,NNW,330,6.0,11.0,38,0.00,,,0.00,Wunderground v.1.15,2013-11-07 23:59:00,
2013-11-07 17:04:00,42.5,18.0,30.24,NNW,330,5.0,10.0,37,0.00,,,0.00,Wunderground v.1.15,2013-11-08 00:04:00,
2013-11-07 17:11:00,42.5,17.4,30.24,WNW,290,6.0,6.0,36,0.00,,,0.00,Wunderground v.1.15,2013-11-08 00:11:00,
2013-11-07 17:16:00,42.4,17.3,30.24,NNE,25,4.0,6.0,36,0.00,,,0.00,Wunderground v.1.15,2013-11-08 00:16:00,
2013-11-07 17:22:00,42.0,18.2,30.24,NW,304,3.0,3.0,38,0.00,,,0.00,Wunderground v.1.15,2013-11-08 00:22:00,
2013-11-07 17:27:00,41.8,16.1,30.24,NNE,14,3.0,9.0,35,0.00,,,0.00,Wunderground v.1.15,2013-11-08 00:27:00,
2013-11-07 17:32:00,42.3,16.6,30.24,NNW,328,4.0,7.0,35,0.00,,,0.00,Wunderground v.1.15,2013-11-08 00:32:00,
2013-11-07 17:37:00,42.4,16.0,30.24,NW,325,5.0,11.0,34,0.00,,,0.00,Wunderground v.1.15,2013-11-08 00:37:00,
2013-11-07 17:43:00,42.2,17.1,30.23,NNE,13,3.0,4.0,36,0.00,,,0.00,Wunderground v.1.15,2013-11-08 00:43:00,
2013-11-07 17:48:00,41.9,16.9,30.24,NNW,345,3.0,5.0,36,0.00,,,0.00,Wunderground v.1.15,2013-11-08 00:48:00,
2013-11-07 17:53:00,42.0,16.3,30.23,NW,309,4.0,5.0,35,0.00,,,0.00,Wunderground v.1.15,2013-11-08 00:53:00,
2013-11-07 17:58:00,42.0,16.9,30.23,NE,36,4.0,5.0,36,0.00,,,0.00,Wunderground v.1.15,2013-11-08 00:58:00,
2013-11-07 18:03:00,41.9,16.9,30.23,North,11,3.0,6.0,36,0.00,,,0.00,Wunderground v.1.15,2013-11-08 01:03:00,
2013-11-07 18:09:00,41.7,16.7,30.23,North,11,4.0,6.0,36,0.00,,,0.00,Wunderground v.1.15,2013-11-08 01:09:00,
2013-11-07 18:15:00,41.7,16.7,30.23,NW,308,4.0,8.0,36,0.00,,,0.00,Wunderground v.1.15,2013-11-08 01:15:00,
2013-11-07 18:21:00,41.7,17.3,30.22,NW,309,4.0,4.0,37,0.00,,,0.00,Wunderground v.1.15,2013-11-08 01:21:00,
2013-11-07 18:26:00,41.5,17.1,30.22,NW,320,3.0,7.0,37,0.00,,,0.00,Wunderground v.1.15,2013-11-08 01:26:00,
2013-11-07 18:32:00,41.5,17.1,30.21,NE,37,3.0,8.0,37,0.00,,,0.00,Wunderground v.1.15,2013-11-08 01:32:00,
2013-11-07 18:37:00,41.8,17.4,30.22,NW,319,4.0,8.0,37,0.00,,,0.00,Wunderground v.1.15,2013-11-08 01:37:00,
2013-11-07 18:42:00,41.7,17.3,30.21,NW,324,4.0,12.0,37,0.00,,,0.00,Wunderground v.1.15,2013-11-08 01:42:00,
2013-11-07 18:48:00,41.8,17.4,30.21,WSW,255,5.0,12.0,37,0.00,,,0.00,Wunderground v.1.15,2013-11-08 01:48:00,
2013-11-07 18:53:00,41.6,17.8,30.20,North,352,5.0,7.0,38,0.00,,,0.00,Wunderground v.1.15,2013-11-08 01:53:00,
2013-11-07 18:58:00,41.6,17.8,30.19,NW,312,4.0,13.0,38,0.00,,,0.00,Wunderground v.1.15,2013-11-08 01:58:00,
2013-11-07 19:04:00,41.6,17.8,30.19,NNW,344,4.0,6.0,38,0.00,,,0.00,Wunderground v.1.15,2013-11-08 02:04:00,
2013-11-07 19:10:00,41.5,17.7,30.18,NNW,332,5.0,5.0,38,0.00,,,0.00,Wunderground v.1.15,2013-11-08 02:10:00,
2013-11-07 19:15:00,41.4,17.7,30.18,NNW,335,4.0,6.0,38,0.00,,,0.00,Wunderground v.1.15,2013-11-08 02:15:00,
2013-11-07 19:22:00,41.6,17.8,30.17,NNE,16,5.0,6.0,38,0.00,,,0.00,Wunderground v.1.15,2013-11-08 02:22:00,
2013-11-07 19:27:00,41.7,17.9,30.17,NNE,13,6.0,8.0,38,0.00,,,0.00,Wunderground v.1.15,2013-11-08 02:27:00,
2013-11-07 19:32:00,41.7,17.9,30.17,NE,40,6.0,8.0,38,0.00,,,0.00,Wunderground v.1.15,2013-11-08 02:32:00,
2013-11-07 19:38:00,41.7,17.9,30.16,NNE,13,4.0,8.0,38,0.00,,,0.00,Wunderground v.1.15,2013-11-08 02:38:00,
2013-11-07 19:43:00,41.8,18.0,30.15,NNE,30,3.0,7.0,38,0.00,,,0.00,Wunderground v.1.15,2013-11-08 02:43:00,
2013-11-07 19:49:00,41.8,18.0,30.15,NE,37,5.0,9.0,38,0.00,,,0.00,Wunderground v.1.15,2013-11-08 02:49:00,
2013-11-07 19:55:00,41.7,17.9,30.15,NW,308,6.0,13.0,38,0.00,,,0.00,Wunderground v.1.15,2013-11-08 02:55:00,
2013-11-07 20:00:00,41.8,18.0,30.15,NNE,18,4.0,4.0,38,0.00,,,0.00,Wunderground v.1.15,2013-11-08 03:00:00,
2013-11-07 20:05:00,41.6,17.8,30.14,NNE,22,3.0,7.0,38,0.00,,,0.00,Wunderground v.1.15,2013-11-08 03:05:00,
2013-11-07 20:11:00,41.6,17.8,30.14,NNW,342,4.0,5.0,38,0.00,,,0.00,Wunderground v.1.15,2013-11-08 03:11:00,
2013-11-07 20:16:00,41.4,18.3,30.14,East,84,3.0,5.0,39,0.00,,,0.00,Wunderground v.1.15,2013-11-08 03:16:00,
2013-11-07 20:21:00,41.2,18.1,30.15,NNE,30,2.0,4.0,39,0.00,,,0.00,Wunderground v.1.15,2013-11-08 03:21:00,
2013-11-07 20:27:00,41.4,18.3,30.14,SW,236,3.0,6.0,39,0.00,,,0.00,Wunderground v.1.15,2013-11-08 03:27:00,
2013-11-07 20:32:00,41.5,18.4,30.13,NNE,32,5.0,7.0,39,0.00,,,0.00,Wunderground v.1.15,2013-11-08 03:32:00,
2013-11-07 20:37:00,41.6,17.8,30.12,North,349,6.0,9.0,38,0.00,,,0.00,Wunderground v.1.15,2013-11-08 03:37:00,
2013-11-07 20:43:00,41.6,17.8,30.12,WNW,301,5.0,6.0,38,0.00,,,0.00,Wunderground v.1.15,2013-11-08 03:43:00,
2013-11-07 20:48:00,41.8,18.0,30.12,North,7,5.0,6.0,38,0.00,,,0.00,Wunderground v.1.15,2013-11-08 03:48:00,
2013-11-07 20:53:00,41.5,17.7,30.11,ENE,61,4.0,5.0,38,0.00,,,0.00,Wunderground v.1.15,2013-11-08 03:53:00,
2013-11-07 20:58:00,41.6,17.8,30.12,NNW,330,4.0,8.0,38,0.00,,,0.00,Wunderground v.1.15,2013-11-08 03:58:00,
2013-11-07 21:04:00,42.0,17.6,30.11,NNE,18,5.0,11.0,37,0.00,,,0.00,Wunderground v.1.15,2013-11-08 04:04:00,
2013-11-07 21:09:00,41.9,18.1,30.11,North,355,5.0,11.0,38,0.00,,,0.00,Wunderground v.1.15,2013-11-08 04:09:00,
2013-11-07 21:14:00,42.0,17.6,30.12,WNW,296,6.0,10.0,37,0.00,,,0.00,Wunderground v.1.15,2013-11-08 04:14:00,
2013-11-07 21:20:00,42.4,17.9,30.11,North,359,7.0,10.0,37,0.00,,,0.00,Wunderground v.1.15,2013-11-08 04:20:00,
2013-11-07 21:26:00,42.1,18.3,30.12,NNW,332,6.0,10.0,38,0.00,,,0.00,Wunderground v.1.15,2013-11-08 04:26:00,
2013-11-07 21:31:00,42.1,18.3,30.10,WNW,298,4.0,5.0,38,0.00,,,0.00,Wunderground v.1.15,2013-11-08 04:31:00,
2013-11-07 21:36:00,41.7,17.9,30.10,NNW,332,3.0,6.0,38,0.00,,,0.00,Wunderground v.1.15,2013-11-08 04:36:00,
2013-11-07 21:42:00,41.7,17.9,30.10,North,354,3.0,6.0,38,0.00,,,0.00,Wunderground v.1.15,2013-11-08 04:42:00,
2013-11-07 21:47:00,41.4,18.3,30.09,NNW,335,3.0,7.0,39,0.00,,,0.00,Wunderground v.1.15,2013-11-08 04:47:00,
2013-11-07 21:53:00,41.2,18.1,30.10,WNW,287,4.0,10.0,39,0.00,,,0.00,Wunderground v.1.15,2013-11-08 04:53:00,
2013-11-07 21:58:00,41.2,18.1,30.08,NNE,18,4.0,10.0,39,0.00,,,0.00,Wunderground v.1.15,2013-11-08 04:58:00,
2013-11-07 22:01:00,41.3,18.2,30.08,NE,47,5.0,11.0,39,0.00,,,0.00,Wunderground v.1.15,2013-11-08 05:01:00,
2013-11-07 22:03:00,41.5,18.4,30.08,WNW,295,6.0,11.0,39,0.00,,,0.00,Wunderground v.1.15,2013-11-08 05:03:00,
2013-11-07 22:04:00,41.5,18.4,30.08,WNW,300,7.0,11.0,39,0.00,,,0.00,Wunderground v.1.15,2013-11-08 05:04:00,
2013-11-07 22:07:00,41.5,18.4,30.09,NW,319,7.0,11.0,39,0.00,,,0.00,Wunderground v.1.15,2013-11-08 05:07:00,
2013-11-07 22:09:00,41.5,18.4,30.09,WNW,301,8.0,11.0,39,0.00,,,0.00,Wunderground v.1.15,2013-11-08 05:09:00,
2013-11-07 22:14:00,41.6,18.4,30.08,West,280,8.0,13.0,39,0.00,,,0.00,Wunderground v.1.15,2013-11-08 05:14:00,
2013-11-07 22:17:00,41.5,18.9,30.07,North,353,9.0,19.0,40,0.00,,,0.00,Wunderground v.1.15,2013-11-08 05:17:00,
2013-11-07 22:22:00,41.6,19.0,30.08,NW,326,8.0,15.0,40,0.00,,,0.00,Wunderground v.1.15,2013-11-08 05:22:00,
2013-11-07 22:28:00,41.4,18.9,30.08,SW,225,8.0,15.0,40,0.00,,,0.00,Wunderground v.1.15,2013-11-08 05:28:00,
2013-11-07 22:33:00,41.2,19.2,30.06,North,358,6.0,12.0,41,0.00,,,0.00,Wunderground v.1.15,2013-11-08 05:33:00,
2013-11-07 22:39:00,40.9,19.5,30.06,NW,321,5.0,12.0,42,0.00,,,0.00,Wunderground v.1.15,2013-11-08 05:39:00,
2013-11-07 22:45:00,40.8,19.5,30.06,NW,319,6.0,12.0,42,0.00,,,0.00,Wunderground v.1.15,2013-11-08 05:45:00,
2013-11-07 22:50:00,40.9,19.0,30.06,NNE,13,8.0,19.0,41,0.00,,,0.00,Wunderground v.1.15,2013-11-08 05:50:00,
2013-11-07 22:56:00,40.9,19.0,30.05,NW,316,9.0,19.0,41,0.00,,,0.00,Wunderground v.1.15,2013-11-08 05:56:00,
2013-11-07 23:05:00,40.7,19.4,30.05,North,356,7.0,7.0,42,0.00,,,0.00,Wunderground v.1.15,2013-11-08 06:05:00,
2013-11-07 23:11:00,40.6,19.3,30.04,WNW,302,6.0,12.0,42,0.00,,,0.00,Wunderground v.1.15,2013-11-08 06:11:00,
2013-11-07 23:16:00,40.5,19.7,30.05,NW,325,7.0,24.0,43,0.00,,,0.00,Wunderground v.1.15,2013-11-08 06:16:00,
2013-11-07 23:21:00,40.4,19.6,30.04,WSW,250,9.0,24.0,43,0.00,,,0.00,Wunderground v.1.15,2013-11-08 06:21:00,
2013-11-07 23:27:00,40.6,19.3,30.04,NNE,18,8.0,11.0,42,0.00,,,0.00,Wunderground v.1.15,2013-11-08 06:27:00,
2013-11-07 23:32:00,40.8,19.5,30.02,West,273,9.0,13.0,42,0.00,,,0.00,Wunderground v.1.15,2013-11-08 06:32:00,
2013-11-07 23:37:00,40.8,19.5,30.02,NNE,18,7.0,14.0,42,0.00,,,0.00,Wunderground v.1.15,2013-11-08 06:37:00,
2013-11-07 23:43:00,40.8,19.5,30.01,NW,314,7.0,14.0,42,0.00,,,0.00,Wunderground v.1.15,2013-11-08 06:43:00,
2013-11-07 23:48:00,40.8,18.9,30.00,WNW,291,7.0,13.0,41,0.00,,,0.00,Wunderground v.1.15,2013-11-08 06:48:00,
2013-11-07 23:53:00,41.0,19.1,30.00,NW,322,7.0,13.0,41,0.00,,,0.00,Wunderground v.1.15,2013-11-08 06:53:00,
2013-11-07 23:59:00,41.1,18.6,30.01,NNW,334,8.0,22.0,40,0.00,,,0.00,Wunderground v.1.15,2013-11-08 06:59:00,